Snowfall_Accumulation
nan nan nan nan nan nan nan 0.0 0.3 0.0 0.0 0.2 0.0 0.2 0.0 nan 0.0 0.0 0.0 0.0 0.0 0.0 0.0 0.0 0.1 0.0 0.0 0.0 0.0 0.0 0.0 0.0 1.4 0.1 0.0 0.0 0.0 0.0 0.0 1.0 0.1 0.4 1.0 3.4
nan nan nan nan nan nan 0.0 0.0 0.0 0.0 0.0 0.4 0.2 0.0 0.0 0.0 0.0 0.0 0.0 0.0 0.0 0.0 0.0 0.0 0.0 0.0 0.0 0.0 0.0 0.0 0.0 0.1 0.7 0.4 0.2 0.0 0.0 0.0 0.0 0.0 0.1 0.2 3.7 3.8
nan nan nan nan nan nan 0.0 0.0 0.3 0.0 0.0 0.0 0.0 0.0 0.0 0.0 0.0 0.0 0.0 0.0 0.0 0.0 0.0 0.0 0.0 0.1 0.0 0.0 0.0 nan nan 0.0 0.1 1.2 0.1 0.0 0.1 0.0 0.0 0.0 1.3 0.2 2.1 0.6
nan nan nan nan nan nan 0.0 0.0 0.1 0.0 0.1 0.0 0.0 0.0 0.0 0.0 0.0 0.0 0.0 0.0 0.0 0.0 0.0 0.0 0.0 0.0 0.0 0.0 nan 0.0 0.0 0.1 0.0 0.0 0.0 0.0 0.0 0.0 0.0 0.8 0.0 0.6 0.0 0.0
nan nan nan nan nan nan 0.0 0.0 0.1 0.0 0.0 0.0 0.0 0.0 0.0 0.0 0.0 0.0 0.0 0.0 0.0 0.0 0.0 0.0 0.0 0.0 0.0 0.0 0.0 0.0 0.0 0.1 0.0 0.1 0.0 0.0 0.0 0.0 0.0 0.0 0.0 0.0 0.0 0.0
nan nan nan nan nan nan 0.0 0.0 0.0 0.0 nan 0.0 0.0 0.0 0.0 0.0 0.0 0.0 0.0 0.0 0.0 0.0 0.0 0.0 0.0 0.0 0.0 0.0 0.0 0.0 0.0 0.0 0.1 0.1 0.0 0.0 0.2 0.0 0.0 0.0 0.0 0.0 0.1 0.0
nan nan nan nan nan nan 0.0 0.0 0.0 0.0 0.0 0.0 0.0 0.0 0.0 0.0 0.0 0.0 0.0 0.0 0.0 0.0 0.0 0.0 0.0 0.0 0.0 0.0 0.0 0.0 0.0 0.0 0.0 0.2 0.0 0.2 0.0 0.0 0.0 0.0 0.0 0.0 0.0 0.0
nan nan nan nan nan nan 0.0 0.0 0.0 0.0 0.0 0.0 0.0 0.0 0.0 0.0 0.0 0.0 0.0 0.0 0.0 0.0 0.0 0.0 0.0 0.0 0.0 0.0 0.0 0.0 0.0 0.0 0.1 0.2 0.0 0.0 0.0 0.0 0.0 0.0 0.0 0.0 0.0 0.0
nan nan nan nan nan nan 0.0 0.0 0.0 0.0 0.0 0.0 0.0 0.0 0.0 0.0 0.0 0.0 0.0 0.0 0.0 0.0 0.0 0.0 0.0 0.1 0.0 0.0 0.0 0.0 0.0 0.0 0.0 0.2 0.2 0.3 0.0 0.0 0.0 0.0 0.0 0.0 0.0 0.0
nan nan nan nan nan nan 0.0 0.0 0.0 0.0 0.0 0.0 0.0 0.0 0.0 0.0 0.0 0.0 0.0 0.0 0.1 0.0 0.0 0.0 0.5 0.0 0.0 0.0 0.0 0.0 0.0 0.0 0.2 0.0 0.3 0.0 0.0 0.0 0.0 0.0 0.0 0.0 0.0 0.0
nan nan nan nan nan nan 0.0 0.0 0.0 0.0 0.0 0.0 0.0 0.0 0.0 0.0 0.0 0.0 0.0 0.0 0.1 0.2 0.0 0.0 0.1 0.0 0.0 0.0 0.0 0.0 0.0 0.1 0.1 0.1 0.2 2.5 0.0 0.0 0.0 0.0 0.0 0.0 0.0 0.0
nan nan nan nan nan nan nan 0.0 0.0 0.0 0.0 0.0 0.0 0.0 0.0 0.0 0.0 0.0 0.0 0.0 0.0 0.0 0.0 0.0 0.0 0.0 0.2 0.0 0.0 0.0 0.0 0.0 0.0 0.0 0.0 0.0 0.0 0.0 0.0 0.0 0.0 0.0 0.0 0.0
nan nan nan nan nan nan nan 0.0 0.0 0.0 0.0 0.0 0.0 0.0 0.0 0.0 0.0 0.0 0.0 0.0 0.0 0.0 0.0 0.0 0.0 0.0 0.0 0.0 0.0 0.0 0.0 0.0 0.0 0.0 0.0 0.0 0.0 0.0 0.0 0.0 0.0 0.0 0.0 0.0
nan nan nan nan nan nan nan 0.0 0.0 0.0 0.0 0.1 0.0 0.0 0.0 0.0 0.0 0.0 0.0 0.0 0.0 0.0 0.0 0.0 0.0 0.2 0.0 0.0 0.0 0.0 0.0 0.0 0.0 0.0 0.0 0.0 0.0 0.0 0.0 0.0 0.0 0.0 0.0 0.0
nan nan nan nan nan nan nan 0.0 0.0 0.0 0.0 0.1 0.0 0.0 0.0 0.0 0.0 0.0 0.0 0.0 0.0 0.0 0.0 0.0 0.0 0.0 0.0 0.0 0.0 0.0 0.0 0.0 0.0 0.0 0.0 0.0 0.0 0.0 0.0 0.0 0.0 0.0 0.0 0.0
nan nan nan nan nan nan 0.0 0.0 0.0 0.0 0.0 0.2 0.9 0.0 0.0 0.0 0.0 0.0 0.0 0.0 0.0 0.0 0.0 0.0 0.0 0.0 0.0 0.3 0.0 0.0 0.0 0.0 0.0 0.0 0.0 0.0 0.0 0.0 0.0 0.0 0.0 0.0 0.0 0.0
nan nan nan nan nan 0.0 0.0 0.0 0.0 nan 0.0 0.2 4.4 0.4 0.0 0.0 0.0 0.0 0.0 0.0 0.0 0.0 0.0 0.0 0.0 0.0 0.0 0.0 0.0 0.0 0.0 0.0 0.0 0.0 0.0 0.0 0.0 0.0 0.0 0.0 0.0 0.0 0.0 0.0
nan nan nan nan nan nan 0.0 0.0 nan nan 0.0 0.5 9.8 3.3 0.0 0.0 0.1 0.0 0.0 0.0 0.0 0.1 0.0 0.1 0.0 0.0 0.0 0.1 0.0 0.0 0.0 0.0 0.0 0.0 0.0 0.0 0.0 0.0 0.0 0.0 0.0 0.0 0.0 0.0
nan nan nan 0.0 0.0 0.0 0.0 nan nan 0.0 0.2 7.1 4.9 2.5 2.7 0.0 0.1 0.2 0.3 0.1 2.5 0.4 1.2 0.1 0.0 0.1 0.6 0.0 0.0 0.0 0.0 0.0 0.0 0.0 0.0 0.0 0.0 0.0 0.0 0.0 0.0 0.0 0.0 0.0
nan 0.0 0.0 1.0 0.0 nan nan 0.0 1.0 1.8 1.3 2.7 3.0 0.5 1.9 0.2 0.4 1.1 1.4 1.3 2.7 8.2 0.3 0.1 1.8 0.3 0.0 0.0 0.0 0.0 0.0 0.0 0.0 0.0 0.0 0.0 0.0 0.0 0.0 0.0 0.0 0.0 0.0 0.0
0.0 0.5 0.7 0.0 nan 0.0 1.3 4.1 5.3 3.4 4.0 0.8 0.6 0.0 0.5 0.2 3.2 2.7 1.7 7.7 4.2 7.4 1.2 1.1 2.1 0.4 0.1 0.0 0.0 0.0 0.0 0.0 0.0 0.0 0.0 0.0 0.0 0.0 0.0 0.0 0.0 0.0 0.0 0.0
0.1 0.3 0.0 0.0 2.0 3.3 5.6 6.0 4.7 3.1 2.4 1.6 1.4 0.8 0.6 1.8 0.9 2.9 5.7 5.1 7.5 9.4 0.5 4.2 2.4 0.1 0.0 0.0 0.0 0.0 0.0 0.0 0.0 0.0 0.0 0.0 0.0 0.0 0.0 0.0 0.0 0.0 0.0 0.0
0.0 0.6 1.9 3.3 5.7 36.1 11.0 9.0 7.6 8.5 3.3 2.3 1.2 3.4 0.3 1.2 0.8 3.6 3.5 10.4 9.0 0.8 12.3 2.2 0.8 0.1 0.0 0.0 0.0 0.0 0.0 0.0 0.0 0.0 0.0 0.0 0.0 0.0 0.0 0.0 0.0 0.0 0.0 0.0
2.3 9.4 41.4 8.7 10.1 2.5 3.1 2.5 2.9 1.8 1.7 1.0 1.2 1.9 1.7 1.6 3.2 2.8 8.5 2.8 1.7 11.5 9.3 3.1 0.5 0.2 0.1 0.0 0.0 0.0 0.1 0.0 0.0 0.0 0.0 0.0 0.0 0.0 0.0 0.0 0.0 0.0 0.0 0.0
7.4 6.6 26.9 8.8 0.8 1.8 2.2 3.5 3.1 1.4 1.5 1.9 2.0 1.5 1.0 3.0 6.3 1.6 4.8 10.5 10.3 2.6 4.0 1.0 0.9 1.3 1.8 0.3 0.1 0.3 0.7 0.3 0.1 0.1 0.1 0.1 0.1 0.1 0.1 0.0 0.0 0.0 0.0 0.0
9.2 8.3 7.0 0.4 3.9 5.3 3.9 3.7 2.5 0.6 0.8 0.8 1.5 3.9 7.3 5.0 3.6 8.0 6.6 10.2 7.1 3.4 2.4 0.9 0.6 0.4 0.8 0.1 0.1 0.1 0.5 1.3 1.4 0.6 0.2 0.1 0.1 0.2 0.1 0.1 0.1 0.1 0.1 0.1
15.4 14.6 0.1 1.3 2.6 2.3 0.6 0.1 0.2 0.0 2.3 5.1 6.1 11.8 5.5 5.6 9.2 7.1 2.6 8.3 2.1 1.9 1.1 0.6 0.2 0.2 0.1 0.0 0.0 0.1 0.1 0.1 0.1 0.1 0.1 0.1 0.0 0.0 0.1 0.3 0.1 0.2 0.1 0.1
Water_Equivalent
nan nan nan nan nan nan nan 0.00 0.11 0.00 0.00 0.10 0.02 0.08 0.00 nan 0.00 0.00 0.00 0.00 0.00 0.00 0.00 0.00 0.03 0.00 0.00 0.00 0.00 0.00 0.00 0.01 0.41 0.02 0.00 0.00 0.00 0.00 0.00 0.28 0.03 0.11 0.22 0.60
nan nan nan nan nan nan 0.00 0.00 0.00 0.00 0.00 0.18 0.06 0.00 0.00 0.00 0.00 0.00 0.00 0.00 0.00 0.00 0.00 0.01 0.00 0.02 0.00 0.00 0.00 0.00 0.00 0.05 0.20 0.12 0.06 0.00 0.00 0.00 0.00 0.00 0.05 0.04 0.69 0.71
nan nan nan nan nan nan 0.00 0.00 0.12 0.00 0.00 0.00 0.00 0.00 0.00 0.00 0.00 0.00 0.00 0.00 0.00 0.00 0.00 0.00 0.00 0.05 0.00 0.00 0.00 nan nan 0.00 0.02 0.31 0.03 0.00 0.04 0.00 0.00 0.02 0.36 0.05 0.47 0.14
nan nan nan nan nan nan 0.00 0.00 0.05 0.00 0.04 0.01 0.00 0.00 0.00 0.00 0.00 0.00 0.00 0.00 0.00 0.01 0.00 0.00 0.00 0.01 0.00 0.00 nan 0.00 0.00 0.04 0.00 0.00 0.00 0.00 0.00 0.00 0.00 0.25 0.00 0.15 0.01 0.01
nan nan nan nan nan nan 0.00 0.00 0.02 0.00 0.00 0.00 0.00 0.00 0.00 0.00 0.00 0.00 0.00 0.00 0.00 0.00 0.00 0.00 0.00 0.00 0.00 0.00 0.00 0.00 0.00 0.02 0.00 0.02 0.00 0.00 0.00 0.00 0.00 0.00 0.00 0.00 0.00 0.00
nan nan nan nan nan nan 0.00 0.00 0.00 0.00 nan 0.00 0.00 0.00 0.00 0.00 0.00 0.00 0.00 0.00 0.00 0.00 0.00 0.00 0.00 0.00 0.00 0.00 0.00 0.00 0.00 0.01 0.04 0.03 0.00 0.00 0.07 0.00 0.00 0.00 0.00 0.00 0.03 0.00
nan nan nan nan nan nan 0.00 0.00 0.00 0.00 0.00 0.00 0.00 0.00 0.00 0.00 0.00 0.00 0.00 0.00 0.00 0.00 0.00 0.00 0.00 0.00 0.00 0.00 0.00 0.00 0.00 0.00 0.00 0.07 0.00 0.04 0.00 0.00 0.00 0.00 0.00 0.00 0.00 0.00
nan nan nan nan nan nan 0.00 0.00 0.00 0.00 0.00 0.00 0.00 0.00 0.00 0.00 0.00 0.00 0.00 0.00 0.00 0.00 0.00 0.00 0.00 0.00 0.00 0.00 0.00 0.00 0.00 0.00 0.02 0.07 0.01 0.00 0.00 0.00 0.00 0.00 0.00 0.00 0.00 0.00
nan nan nan nan nan nan 0.00 0.00 0.00 0.00 0.00 0.00 0.00 0.00 0.00 0.00 0.00 0.00 0.00 0.00 0.00 0.00 0.00 0.00 0.00 0.05 0.00 0.00 0.00 0.00 0.00 0.00 0.00 0.08 0.06 0.09 0.00 0.00 0.00 0.00 0.01 0.00 0.00 0.00
nan nan nan nan nan nan 0.00 0.00 0.00 0.00 0.00 0.00 0.00 0.00 0.00 0.00 0.00 0.00 0.00 0.00 0.02 0.00 0.00 0.02 0.15 0.01 0.00 0.00 0.00 0.00 0.00 0.01 0.06 0.01 0.08 0.01 0.00 0.00 0.00 0.01 0.00 0.00 0.00 0.00
nan nan nan nan nan nan 0.00 0.00 0.00 0.00 0.00 0.00 0.00 0.00 0.00 0.00 0.00 0.00 0.00 0.02 0.05 0.06 0.00 0.02 0.03 0.00 0.00 0.00 0.00 0.00 0.00 0.02 0.03 0.04 0.05 0.45 0.00 0.00 0.00 0.00 0.00 0.00 0.00 0.00
nan nan nan nan nan nan nan 0.00 0.00 0.00 0.00 0.00 0.00 0.00 0.00 0.00 0.00 0.00 0.00 0.00 0.00 0.00 0.00 0.01 0.00 0.00 0.07 0.00 0.00 0.00 0.00 0.00 0.00 0.00 0.00 0.00 0.00 0.00 0.00 0.00 0.00 0.00 0.00 0.00
nan nan nan nan nan nan nan 0.00 0.00 0.00 0.00 0.00 0.00 0.00 0.00 0.00 0.00 0.00 0.00 0.00 0.00 0.00 0.00 0.01 0.00 0.00 0.00 0.00 0.01 0.00 0.00 0.00 0.00 0.00 0.00 0.00 0.00 0.00 0.00 0.00 0.00 0.00 0.00 0.00
nan nan nan nan nan nan nan 0.00 0.00 0.00 0.00 0.05 0.00 0.00 0.00 0.00 0.00 0.00 0.00 0.00 0.00 0.00 0.00 0.00 0.00 0.05 0.00 0.00 0.00 0.00 0.00 0.00 0.00 0.00 0.00 0.00 0.00 0.00 0.00 0.00 0.00 0.00 0.00 0.00
nan nan nan nan nan nan nan 0.00 0.00 0.00 0.00 0.04 0.00 0.00 0.00 0.00 0.00 0.00 0.00 0.00 0.00 0.00 0.00 0.00 0.00 0.00 0.00 0.00 0.00 0.00 0.00 0.00 0.00 0.01 0.00 0.00 0.00 0.00 0.00 0.00 0.00 0.00 0.00 0.00
nan nan nan nan nan nan 0.00 0.00 0.00 0.00 0.00 0.06 0.24 0.00 0.00 0.00 0.00 0.00 0.00 0.00 0.00 0.00 0.00 0.00 0.00 0.00 0.00 0.11 0.00 0.00 0.00 0.00 0.00 0.00 0.00 0.00 0.00 0.00 0.00 0.00 0.00 0.00 0.00 0.00
nan nan nan nan nan 0.00 0.00 0.00 0.00 nan 0.00 0.08 1.03 0.11 0.00 0.00 0.00 0.00 0.00 0.00 0.00 0.00 0.00 0.00 0.00 0.00 0.00 0.00 0.00 0.00 0.00 0.00 0.00 0.00 0.00 0.00 0.00 0.00 0.00 0.00 0.00 0.00 0.00 0.00
nan nan nan nan nan nan 0.00 0.00 nan nan 0.00 0.14 2.04 0.62 0.01 0.00 0.01 0.00 0.00 0.00 0.00 0.01 0.00 0.01 0.00 0.00 0.00 0.02 0.00 0.00 0.00 0.00 0.00 0.00 0.00 0.00 0.00 0.00 0.00 0.00 0.00 0.00 0.00 0.00
nan nan nan 0.00 0.00 0.00 0.00 nan nan 0.00 0.05 1.38 0.92 0.73 0.97 0.00 0.01 0.04 0.05 0.01 0.42 0.06 0.17 0.02 0.00 0.01 0.15 0.00 0.00 0.00 0.00 0.00 0.00 0.00 0.00 0.00 0.00 0.00 0.00 0.00 0.00 0.00 0.00 0.00
nan 0.00 0.01 0.29 0.00 nan nan 0.00 0.29 0.51 0.34 0.58 0.50 0.08 0.40 0.03 0.06 0.17 0.22 0.19 0.48 1.88 0.04 0.01 0.26 0.07 0.00 0.00 0.00 0.00 0.00 0.00 0.00 0.00 0.00 0.00 0.00 0.00 0.00 0.00 0.00 0.00 0.00 0.00
0.00 0.10 0.18 0.00 nan 0.00 0.28 0.76 1.01 0.64 0.79 0.16 0.11 0.01 0.11 0.03 0.71 0.47 0.30 1.56 0.82 1.42 0.23 0.20 0.44 0.12 0.03 0.00 0.00 0.00 0.00 0.00 0.00 0.00 0.00 0.00 0.00 0.00 0.00 0.00 0.00 0.00 0.00 0.00
0.01 0.06 0.00 0.00 0.44 0.77 1.04 1.21 1.03 0.61 0.61 0.29 0.25 0.18 0.18 0.32 0.17 0.50 0.96 0.95 1.41 1.43 0.07 0.80 0.43 0.03 0.00 0.00 0.00 0.00 0.00 0.00 0.00 0.00 0.00 0.00 0.00 0.00 0.00 0.00 0.00 0.00 0.00 0.00
0.00 0.12 0.43 0.63 1.13 5.09 1.85 1.31 1.67 1.80 0.67 0.58 0.34 0.91 0.05 0.19 0.17 0.66 0.57 1.83 1.59 0.11 2.12 0.40 0.23 0.05 0.01 0.01 0.00 0.00 0.00 0.00 0.00 0.00 0.00 0.00 0.00 0.00 0.00 0.00 0.00 0.00 0.00 0.00
0.47 2.35 6.50 1.64 1.76 0.51 0.69 0.45 0.66 0.39 0.44 0.25 0.26 0.52 0.34 0.25 0.65 0.43 1.65 0.38 0.27 1.63 1.29 0.53 0.13 0.06 0.03 0.01 0.01 0.01 0.02 0.00 0.01 0.01 0.00 0.00 0.00 0.00 0.00 0.00 0.00 0.00 0.00 0.00
1.87 1.45 3.87 1.69 0.26 0.57 0.63 1.02 0.82 0.43 0.29 0.37 0.39 0.37 0.14 0.80 1.14 0.23 0.87 1.43 1.47 0.43 0.71 0.24 0.27 0.33 0.41 0.09 0.05 0.10 0.24 0.11 0.04 0.05 0.03 0.04 0.02 0.02 0.02 0.01 0.00 0.00 0.01 0.01
2.79 2.15 1.67 0.09 0.95 1.27 0.96 1.20 0.83 0.21 0.18 0.21 0.41 0.99 1.32 0.95 0.72 1.26 1.03 1.44 0.99 0.69 0.63 0.26 0.17 0.09 0.18 0.03 0.02 0.04 0.18 0.43 0.44 0.19 0.06 0.05 0.05 0.07 0.04 0.02 0.02 0.02 0.03 0.03
4.36 3.31 0.04 0.35 0.67 0.63 0.19 0.02 0.03 0.00 0.54 1.18 1.35 1.83 0.99 1.15 1.35 1.00 0.61 1.38 0.52 0.56 0.35 0.18 0.06 0.04 0.02 0.01 0.00 0.02 0.02 0.03 0.03 0.03 0.02 0.02 0.01 0.02 0.03 0.07 0.03 0.05 0.04 0.02
SL_Ratio
nan nan nan nan nan nan nan nan 2.6 nan nan 2.5 2.5 2.5 nan nan nan nan nan nan nan nan nan nan 3.1 4.0 nan nan nan nan nan 3.3 3.3 3.6 nan nan nan nan nan 3.6 4.4 4.0 4.3 5.7
nan nan nan nan nan nan nan nan nan nan nan 2.5 2.5 nan nan nan nan nan nan nan nan nan nan 3.2 nan 2.8 nan nan nan nan nan 2.5 3.4 3.6 3.4 0.0 nan nan nan nan 2.8 3.9 5.3 5.3
nan nan nan nan nan nan nan nan 2.7 nan nan nan nan nan nan nan nan nan nan nan nan nan nan nan nan 3.0 nan nan nan nan nan nan 3.3 3.8 4.1 nan 3.0 nan nan 2.7 3.6 3.7 4.6 4.4
nan nan nan nan nan nan nan nan 2.5 2.2 2.5 2.6 nan nan nan nan nan nan nan nan nan 2.7 4.0 nan nan 2.9 nan nan nan nan nan 3.2 nan nan nan nan nan nan nan 3.4 nan 3.9 3.8 3.8
nan nan nan nan nan nan nan nan 2.5 nan nan nan nan nan nan nan nan nan nan nan nan nan 3.1 2.5 4.0 nan nan 3.1 nan nan nan 2.5 nan 2.6 nan nan nan nan nan nan nan nan nan nan
nan nan nan nan nan nan nan nan nan nan nan nan nan nan nan nan nan nan nan nan 2.0 nan nan nan nan nan nan nan nan nan nan 2.6 2.7 2.9 nan nan 3.1 nan nan nan nan nan 2.5 nan
nan nan nan nan nan nan nan nan nan nan nan nan nan nan nan nan nan nan nan nan nan nan nan nan nan nan nan nan nan nan nan nan nan 2.8 nan 3.8 2.5 nan nan nan nan nan nan nan
nan nan nan nan nan nan nan nan nan nan nan nan nan nan nan nan nan nan nan nan nan nan nan nan nan nan nan nan nan nan nan nan 2.6 3.0 3.8 nan nan nan nan nan nan nan nan nan
nan nan nan nan nan nan nan nan nan nan nan nan nan nan nan nan nan nan nan nan nan nan nan nan nan 2.6 nan nan nan nan nan nan nan 2.7 3.7 3.5 nan nan nan nan 3.0 nan nan nan
nan nan nan nan nan nan nan nan nan nan nan nan nan nan nan nan nan nan nan nan 2.7 nan nan 2.7 3.0 2.5 nan nan nan nan 5.0 3.1 4.1 3.7 3.9 2.7 nan nan nan 2.9 3.3 nan nan nan
nan nan nan nan nan nan nan nan nan nan nan nan nan nan nan nan nan nan nan 2.9 2.8 2.6 2.2 2.8 3.0 3.3 nan nan nan nan 5.0 2.7 3.7 3.5 3.3 5.5 nan nan nan nan nan nan nan nan
nan nan nan nan nan nan nan nan nan nan nan nan nan nan nan nan nan nan nan nan 5.0 3.3 0.0 2.8 0.0 nan 3.2 nan nan nan nan nan nan nan 2.7 nan nan nan nan nan nan nan nan nan
nan nan nan nan nan nan nan nan nan nan nan nan nan nan nan nan nan nan nan nan nan nan nan 2.5 nan 0.0 nan 2.5 3.3 nan nan nan nan nan nan nan nan nan nan nan nan nan nan nan
nan nan nan nan nan nan nan nan nan nan nan 2.9 nan nan nan nan nan nan nan nan nan nan nan nan nan 3.1 nan nan nan nan nan nan nan nan nan nan nan nan nan nan nan nan nan nan
nan nan nan nan nan nan nan nan nan nan nan 3.3 nan nan nan nan nan nan nan nan nan nan nan nan nan nan nan nan nan nan nan 4.5 nan 5.6 nan nan nan nan nan nan nan nan nan nan
nan nan nan nan nan nan nan nan nan nan nan 2.7 3.7 nan nan nan nan nan nan nan nan nan nan nan nan nan nan 2.5 nan nan nan nan nan nan nan nan nan nan nan nan nan nan nan nan
nan nan nan nan nan nan nan nan nan nan nan 3.1 4.3 3.8 4.0 nan nan nan nan nan nan nan nan nan nan nan nan nan 0.0 nan nan nan nan nan nan 10.0 nan nan nan nan nan nan nan nan
nan nan nan nan nan nan nan nan nan nan nan 3.3 4.8 5.3 6.3 nan 6.9 7.1 nan nan nan 5.9 4.0 6.1 nan nan nan 3.3 nan nan nan nan nan nan nan nan nan nan nan nan nan nan nan nan
nan nan nan nan nan nan nan nan nan nan 3.7 5.1 5.3 3.4 2.8 6.7 6.6 6.5 6.9 6.7 6.1 6.4 7.0 6.9 10.0 7.3 3.8 nan nan nan nan nan nan nan nan nan nan nan nan nan nan nan nan nan
nan nan 4.4 3.4 nan nan nan 2.5 3.6 3.5 3.9 4.7 5.9 6.6 4.8 6.3 7.0 6.2 6.4 6.6 5.8 4.3 7.6 6.8 7.2 4.1 nan nan nan nan nan nan nan nan 2.5 nan 3.3 nan nan nan nan nan nan nan
nan 4.4 3.7 nan nan 4.0 4.6 5.4 5.3 5.3 5.1 5.1 5.5 3.5 4.6 5.4 4.5 5.7 5.8 4.9 5.2 5.2 5.1 5.7 4.8 2.9 2.5 nan nan nan nan nan nan nan nan nan nan nan nan nan nan nan nan nan
4.9 4.9 nan 4.3 4.5 4.3 5.4 5.0 4.6 5.1 4.0 5.3 5.4 4.4 3.6 5.7 5.3 5.7 6.0 5.4 5.3 6.6 6.7 5.2 5.5 2.5 3.0 nan nan nan nan nan nan nan nan nan nan nan nan nan nan nan 5.0 2.5
nan 5.0 4.4 5.3 5.0 7.1 5.9 6.9 4.6 4.7 5.0 3.9 3.5 3.7 6.0 6.2 4.5 5.4 6.1 5.7 5.7 7.5 5.8 5.3 3.7 3.1 2.6 2.9 nan nan nan nan nan nan nan nan nan nan nan 3.3 nan nan nan nan
5.0 4.0 6.4 5.3 5.7 4.9 4.5 5.4 4.4 4.8 3.7 3.9 4.7 3.6 4.9 6.3 4.9 6.4 5.2 7.4 6.5 7.1 7.2 5.8 3.6 3.3 3.1 3.0 3.1 3.0 3.1 0.0 2.6 2.4 2.7 0.0 nan nan nan nan nan nan nan nan
4.0 4.5 7.0 5.2 3.0 3.1 3.6 3.4 3.8 3.3 5.2 5.1 5.0 4.1 6.8 3.8 5.5 6.7 5.4 7.4 7.0 5.9 5.7 4.3 3.4 4.0 4.3 3.5 2.8 3.0 3.0 3.0 2.9 2.9 2.8 2.9 2.8 3.1 3.3 2.4 nan 0.0 3.2 3.9
3.3 3.9 4.2 4.0 4.1 4.2 4.0 3.1 3.0 2.8 4.6 3.8 3.6 3.9 5.5 5.2 5.0 6.3 6.4 7.1 7.2 4.9 3.8 3.5 3.5 4.3 4.4 3.4 2.9 2.9 3.0 3.1 3.2 3.1 3.0 3.0 3.1 3.5 3.3 3.1 3.2 3.4 3.5 3.6
3.5 4.4 2.7 3.6 3.8 3.6 3.3 4.3 4.9 0.0 4.2 4.3 4.5 6.4 5.6 4.9 6.8 7.1 4.2 6.0 3.9 3.5 3.3 3.4 3.8 4.1 3.3 3.0 2.0 3.0 3.0 3.1 3.1 3.0 3.1 3.1 3.0 2.9 4.1 4.3 3.3 3.7 3.4 3.7